Regional Weather Roundup
Issued by NWS

Home | Current Version | Previous Version | Text Only | Print | Product List | Glossary On
Versions: 1 2 3 4 5 6 7 8 9 10 11 12 13 14 15 16 17 18 19 20 21 22 23 24 25 26 27 28 29 30 31 32 33 34 35 36 37 38 39 40 41 42 43 44 45 46 47 48 49 50
000
ASUS43 KOAX 251002
RWRNE

WEATHER ROUNDUP FOR NEBRASKA
NATIONAL WEATHER SERVICE OMAHA NE
400 AM CST SAT NOV 25 2017

NOTES: SATELLITE DATA IS BEING USED TO AUGMENT CLOUD COVER ABOVE
       12000 FEET.
       "FAIR" INDICATES FEW OR NO CLOUDS BELOW 12,000 FEET WITH NO
       SIGNIFICANT WEATHER AND/OR OBSTRUCTIONS TO VISIBILITY.


NEZ001>004-019>022-054>056-251100-
NEBRASKA PANHANDLE

CITY           SKY/WX    TMP DP  RH WIND       PRES   REMARKS
SCOTTSBLUFF    CLOUDY    27  20  75 CALM      30.10R
ALLIANCE       CLOUDY    20  18  92 S5        30.10R WCI  13
CHADRON        CLOUDY    32  28  85 SW3       30.09F
GORDON         FAIR      26  22  85 CALM      30.10S
KIMBALL        CLOUDY    31  27  85 W8        30.13S WCI  24
SIDNEY         CLOUDY    27  22  81 W9        30.12S WCI  18
$$

NEZ057>060-069>072-079>082-251100-
SOUTHWEST NEBRASKA

CITY           SKY/WX    TMP DP  RH WIND       PRES   REMARKS
NORTH PLATTE   PTCLDY    28  24  85 NW9       30.14R WCI  19
IMPERIAL       CLEAR     33  26  75 NW5       30.13R WCI  29
LEXINGTON      PTCLDY    30  25  82 W9        30.12R WCI  22
MCCOOK         PTCLDY    32  27  81 NW8       30.14R WCI  25
OGALLALA       CLOUDY    28  24  88 CALM      30.13S
$$

NEZ005>010-023>029-035>040-094-251100-
NORTH CENTRAL NEBRASKA

CITY           SKY/WX    TMP DP  RH WIND       PRES   REMARKS
VALENTINE      CLEAR     30  25  81 CALM      30.09R
AINSWORTH      CLEAR     31  29  89 W5        30.09R WCI  27
BROKEN BOW     CLEAR     26  21  81 W3        30.09R
O`NEILL        CLEAR     30  28  93 W5        30.06S WCI  25
ORD            CLEAR     27  23  85 NW3       30.08R
THEDFORD       CLEAR     27  24  89 W5        30.11R WCI  21
$$

NEZ041-046>049-061>064-073>077-083>087-251100-
SOUTH CENTRAL NEBRASKA

CITY           SKY/WX    TMP DP  RH WIND       PRES   REMARKS
GRAND ISLAND   CLEAR     32  29  88 W9        30.09R WCI  24
AURORA         CLEAR     33  28  85 NW8       30.08R WCI  25
HASTINGS       CLEAR     32  26  78 CALM      30.09R
HEBRON         CLEAR     35  30  82 W5        30.08R WCI  31
HOLDREGE       CLEAR     31  27  85 NW7       30.10R WCI  24
KEARNEY        CLEAR     31  27  85 NW9       30.10R WCI  23
YORK           CLEAR     32  30  93 NW7       30.08R WCI  26
$$

NEZ011>018-030>034-042>045-251100-
NORTHEAST NEBRASKA

CITY           SKY/WX    TMP DP  RH WIND       PRES   REMARKS
NORFOLK        CLEAR     32  30  92 W8        30.04S WCI  25
ALBION         CLEAR     29  27  90 NW3       30.07S
COLUMBUS       CLEAR     30  29  96 SW3       30.08R
FREMONT        CLEAR     30  28  95 W5        30.06R WCI  25
TEKAMAH        CLEAR     32  27  81 W6        30.05R WCI  26
WAYNE          CLEAR     29  26  92 SW3       30.04S
$$

NEZ050>053-065>068-078-088>093-251100-
SOUTHEAST NEBRASKA

CITY           SKY/WX    TMP DP  RH WIND       PRES   REMARKS
LINCOLN        CLEAR     30  26  85 CALM      30.08R
OMAHA EPPLEY   CLEAR     35  29  78 CALM      30.05R
BEATRICE       CLEAR     34  31  92 NW5       30.06R WCI  29
FALLS CITY     CLEAR     37  32  82 NW8       30.04R WCI  31
NEBRASKA CITY  CLEAR     39  35  84 NW5       30.05R
PLATTSMOUTH    CLEAR     37  33  85 W10       30.05R WCI  30
$$

NEZ044-045-051>053-067-251100-
OMAHA AREA

CITY           SKY/WX    TMP DP  RH WIND       PRES   REMARKS
OMAHA EPPLEY   CLEAR     35  29  78 CALM      30.05R
FREMONT        CLEAR     30  28  95 W5        30.06R WCI  25
MILLARD        CLEAR     34  32  93 CALM      30.06R
OFFUTT AFB     CLEAR     33  29  87 NW5       30.05R WCI  28
PLATTSMOUTH    CLEAR     37  33  85 W10       30.05R WCI  30
WAHOO          FAIR      33  30  88 NW6       30.06R WCI  28
$$




USA.gov is the U.S. government's official web portal to all federal, state and local government web resources and services.